Time,TemperatureF,DewpointF,PressureIn,WindDirection,WindDirectionDegrees,WindSpeedMPH,WindSpeedGustMPH,Humidity,HourlyPrecipIn,Conditions,Clouds,dailyrainin,SolarRadiationWatts/m^2,SoftwareType,DateUTC
2013-04-04 00:02:00,35.5,20.9,30.26,South,186,3.8,6.0,55,0.00,CLR,,0.00,0.0,WeatherDisplay:10.37,2013-04-04 05:02:00,
2013-04-04 00:08:00,35.5,20.9,30.26,SSW,202,0.0,0.0,55,0.00,CLR,,0.00,0.0,WeatherDisplay:10.37,2013-04-04 05:08:00,
2013-04-04 00:12:00,35.3,21.2,30.26,SSW,192,0.0,0.0,56,0.00,CLR,,0.00,0.0,WeatherDisplay:10.37,2013-04-04 05:12:00,
2013-04-04 00:18:00,35.3,21.2,30.25,SSW,213,3.8,6.0,56,0.00,CLR,,0.00,0.0,WeatherDisplay:10.37,2013-04-04 05:18:00,
2013-04-04 00:23:00,35.3,20.7,30.25,SSW,197,2.7,4.8,55,0.00,CLR,,0.00,0.0,WeatherDisplay:10.37,2013-04-04 05:23:00,
2013-04-04 00:28:00,35.3,20.7,30.25,SSW,197,0.0,0.0,55,0.00,CLR,,0.00,0.0,WeatherDisplay:10.37,2013-04-04 05:28:00,
2013-04-04 00:33:00,35.3,20.7,30.24,SSW,207,2.4,4.8,55,0.00,CLR,,0.00,0.0,WeatherDisplay:10.37,2013-04-04 05:33:00,
2013-04-04 00:38:00,35.3,20.7,30.24,SW,222,3.6,4.8,55,0.00,CLR,,0.00,0.0,WeatherDisplay:10.37,2013-04-04 05:38:00,
2013-04-04 00:43:00,35.5,20.5,30.24,South,187,2.7,5.8,54,0.00,CLR,,0.00,0.0,WeatherDisplay:10.37,2013-04-04 05:43:00,
2013-04-04 00:48:00,35.6,20.6,30.24,SSW,197,5.8,7.2,54,0.00,CLR,,0.00,0.0,WeatherDisplay:10.37,2013-04-04 05:48:00,
2013-04-04 00:53:00,35.8,20.8,30.24,South,188,3.6,4.8,54,0.00,CLR,,0.00,0.0,WeatherDisplay:10.37,2013-04-04 05:53:00,
2013-04-04 00:58:00,35.9,20.4,30.24,South,181,4.1,4.8,53,0.00,CLR,,0.00,0.0,WeatherDisplay:10.37,2013-04-04 05:58:00,
2013-04-04 01:03:00,35.9,20.4,30.23,South,185,1.2,4.6,53,0.00,CLR,,0.00,0.0,WeatherDisplay:10.37,2013-04-04 06:03:00,
2013-04-04 01:08:00,35.9,20.4,30.23,SW,233,2.8,6.0,53,0.00,CLR,,0.00,0.0,WeatherDisplay:10.37,2013-04-04 06:08:00,
2013-04-04 01:13:00,36.0,20.5,30.23,SSW,201,3.6,4.8,53,0.00,CLR,,0.00,0.0,WeatherDisplay:10.37,2013-04-04 06:13:00,
2013-04-04 01:18:00,36.0,20.5,30.23,South,186,0.0,0.0,53,0.00,CLR,,0.00,0.0,WeatherDisplay:10.37,2013-04-04 06:18:00,
2013-04-04 01:23:00,36.0,20.1,30.23,South,178,2.3,3.6,52,0.00,CLR,,0.00,0.0,WeatherDisplay:10.37,2013-04-04 06:23:00,
2013-04-04 01:28:00,35.9,20.4,30.23,SSW,194,0.0,3.5,53,0.00,CLR,,0.00,0.0,WeatherDisplay:10.37,2013-04-04 06:28:00,
2013-04-04 01:33:00,35.9,20.4,30.22,SSE,167,0.8,5.8,53,0.00,CLR,,0.00,0.0,WeatherDisplay:10.37,2013-04-04 06:33:00,
2013-04-04 01:38:00,35.9,20.4,30.22,South,174,1.8,6.0,53,0.00,CLR,,0.00,0.0,WeatherDisplay:10.37,2013-04-04 06:38:00,
2013-04-04 01:43:00,35.9,20.4,30.22,South,180,4.2,7.2,53,0.00,CLR,,0.00,0.0,WeatherDisplay:10.37,2013-04-04 06:43:00,
2013-04-04 01:48:00,36.0,20.5,30.22,SSE,158,1.9,6.0,53,0.00,CLR,,0.00,0.0,WeatherDisplay:10.37,2013-04-04 06:48:00,
2013-04-04 01:53:00,36.0,20.1,30.22,SSE,163,2.9,7.2,52,0.00,CLR,,0.00,0.0,WeatherDisplay:10.37,2013-04-04 06:53:00,
2013-04-04 01:58:00,36.0,20.1,30.22,South,188,0.0,0.0,52,0.00,CLR,,0.00,0.0,WeatherDisplay:10.37,2013-04-04 06:58:00,
2013-04-04 02:03:00,36.0,20.1,30.21,SSE,162,2.3,6.0,52,0.00,CLR,,0.00,0.0,WeatherDisplay:10.37,2013-04-04 07:03:00,
2013-04-04 02:08:00,35.9,20.4,30.21,South,184,2.1,3.6,53,0.00,CLR,,0.00,0.0,WeatherDisplay:10.37,2013-04-04 07:08:00,
2013-04-04 02:13:00,35.9,20.4,30.21,South,184,2.4,6.9,53,0.00,CLR,,0.00,0.0,WeatherDisplay:10.37,2013-04-04 07:13:00,
2013-04-04 02:18:00,35.8,20.3,30.20,South,187,3.2,4.8,53,0.00,CLR,,0.00,0.0,WeatherDisplay:10.37,2013-04-04 07:18:00,
2013-04-04 02:23:00,35.8,20.3,30.20,South,190,5.4,8.4,53,0.00,CLR,,0.00,0.0,WeatherDisplay:10.37,2013-04-04 07:23:00,
2013-04-04 02:28:00,35.6,20.6,30.20,SSW,200,1.8,5.8,54,0.00,CLR,,0.00,0.0,WeatherDisplay:10.37,2013-04-04 07:28:00,
2013-04-04 02:33:00,35.6,20.1,30.19,SSW,200,6.9,10.8,53,0.00,CLR,,0.00,0.0,WeatherDisplay:10.37,2013-04-04 07:33:00,
2013-04-04 02:39:00,35.6,20.1,30.19,SSW,195,7.3,8.4,53,0.00,CLR,,0.00,0.0,WeatherDisplay:10.37,2013-04-04 07:39:00,
2013-04-04 02:44:00,35.6,20.1,30.18,SSE,167,7.4,10.8,53,0.00,CLR,,0.00,0.0,WeatherDisplay:10.37,2013-04-04 07:44:00,
2013-04-04 02:50:00,35.8,20.3,30.18,SW,216,7.6,9.6,53,0.00,CLR,,0.00,0.0,WeatherDisplay:10.37,2013-04-04 07:50:00,
2013-04-04 02:55:00,35.8,20.3,30.18,SSW,197,4.9,8.1,53,0.00,CLR,,0.00,0.0,WeatherDisplay:10.37,2013-04-04 07:55:00,
2013-04-04 03:00:00,35.8,20.3,30.18,SSW,192,2.9,6.9,53,0.00,CLR,,0.00,0.0,WeatherDisplay:10.37,2013-04-04 08:00:00,
2013-04-04 03:05:00,35.8,20.3,30.18,SSW,209,5.1,7.2,53,0.00,CLR,,0.00,0.0,WeatherDisplay:10.37,2013-04-04 08:05:00,
2013-04-04 03:10:00,35.8,20.3,30.18,SSW,196,1.2,5.8,53,0.00,CLR,,0.00,0.0,WeatherDisplay:10.37,2013-04-04 08:10:00,
2013-04-04 03:15:00,35.6,20.1,30.17,SSW,200,0.6,3.6,53,0.00,CLR,,0.00,0.0,WeatherDisplay:10.37,2013-04-04 08:15:00,
2013-04-04 03:20:00,35.8,20.3,30.17,SSW,193,2.5,4.8,53,0.00,CLR,,0.00,0.0,WeatherDisplay:10.37,2013-04-04 08:20:00,
2013-04-04 03:25:00,35.9,20.4,30.17,SSW,212,6.3,7.2,53,0.00,CLR,,0.00,0.0,WeatherDisplay:10.37,2013-04-04 08:25:00,
2013-04-04 03:30:00,35.9,20.0,30.17,South,176,4.0,6.0,52,0.00,CLR,,0.00,0.0,WeatherDisplay:10.37,2013-04-04 08:30:00,
2013-04-04 03:35:00,36.0,20.1,30.17,SW,221,8.4,10.8,52,0.00,CLR,,0.00,0.0,WeatherDisplay:10.37,2013-04-04 08:35:00,
2013-04-04 03:40:00,36.0,20.1,30.17,South,170,2.0,4.8,52,0.00,CLR,,0.00,0.0,WeatherDisplay:10.37,2013-04-04 08:40:00,
2013-04-04 03:45:00,36.2,19.8,30.17,South,179,6.0,9.6,51,0.00,CLR,,0.00,0.0,WeatherDisplay:10.37,2013-04-04 08:45:00,
2013-04-04 03:50:00,36.2,20.2,30.17,SSW,200,1.4,7.2,52,0.00,CLR,,0.00,0.0,WeatherDisplay:10.37,2013-04-04 08:50:00,
2013-04-04 03:55:00,36.3,19.9,30.17,South,171,5.6,8.1,51,0.00,CLR,,0.00,0.0,WeatherDisplay:10.37,2013-04-04 08:55:00,
2013-04-04 04:00:00,36.5,19.6,30.16,SSW,208,5.4,8.4,50,0.00,CLR,,0.00,0.0,WeatherDisplay:10.37,2013-04-04 09:00:00,
2013-04-04 04:05:00,36.3,19.9,30.16,SSW,207,7.1,9.6,51,0.00,CLR,,0.00,0.0,WeatherDisplay:10.37,2013-04-04 09:05:00,
2013-04-04 04:10:00,36.3,19.4,30.16,SSW,203,10.5,13.2,50,0.00,CLR,,0.00,0.0,WeatherDisplay:10.37,2013-04-04 09:10:00,
2013-04-04 04:15:00,36.3,19.4,30.16,South,189,5.4,10.4,50,0.00,CLR,,0.00,0.0,WeatherDisplay:10.37,2013-04-04 09:15:00,
2013-04-04 04:20:00,36.3,19.4,30.16,SSW,207,7.6,11.5,50,0.00,CLR,,0.00,0.0,WeatherDisplay:10.37,2013-04-04 09:20:00,
2013-04-04 04:25:00,36.3,19.4,30.16,SSW,206,5.8,8.1,50,0.00,CLR,,0.00,0.0,WeatherDisplay:10.37,2013-04-04 09:25:00,
2013-04-04 04:30:00,36.5,19.6,30.16,South,186,8.1,9.6,50,0.00,CLR,,0.00,0.0,WeatherDisplay:10.37,2013-04-04 09:30:00,
2013-04-04 04:35:00,36.6,19.2,30.16,SSW,211,9.6,10.8,49,0.00,CLR,,0.00,0.0,WeatherDisplay:10.37,2013-04-04 09:35:00,
2013-04-04 04:40:00,36.5,19.6,30.16,South,185,9.6,17.3,50,0.00,CLR,,0.00,0.0,WeatherDisplay:10.37,2013-04-04 09:40:00,
2013-04-04 04:45:00,36.5,19.6,30.16,SSW,202,10.4,13.2,50,0.00,CLR,,0.00,0.0,WeatherDisplay:10.37,2013-04-04 09:45:00,
2013-04-04 04:50:00,36.6,19.2,30.16,SW,216,9.5,10.8,49,0.00,CLR,,0.00,0.0,WeatherDisplay:10.37,2013-04-04 09:50:00,
2013-04-04 04:56:00,36.5,19.1,30.16,South,178,11.3,14.4,49,0.00,CLR,,0.00,0.0,WeatherDisplay:10.37,2013-04-04 09:56:00,
2013-04-04 05:01:00,36.5,19.6,30.16,SSW,198,5.4,7.2,50,0.00,CLR,,0.00,0.0,WeatherDisplay:10.37,2013-04-04 10:01:00,
2013-04-04 05:06:00,36.5,19.1,30.16,SSW,209,9.9,12.0,49,0.00,CLR,,0.00,0.0,WeatherDisplay:10.37,2013-04-04 10:06:00,
2013-04-04 05:11:00,36.5,19.6,30.16,SW,219,7.1,12.0,50,0.00,CLR,,0.00,0.0,WeatherDisplay:10.37,2013-04-04 10:11:00,
2013-04-04 05:16:00,36.3,19.4,30.16,SSW,213,7.3,11.5,50,0.00,CLR,,0.00,0.0,WeatherDisplay:10.37,2013-04-04 10:16:00,
2013-04-04 05:21:00,36.3,19.4,30.16,SSW,207,7.8,9.6,50,0.00,CLR,,0.00,0.0,WeatherDisplay:10.37,2013-04-04 10:21:00,
2013-04-04 05:26:00,36.2,19.3,30.16,South,183,8.6,10.8,50,0.00,CLR,,0.00,0.0,WeatherDisplay:10.37,2013-04-04 10:26:00,
2013-04-04 05:31:00,36.2,19.3,30.16,SSW,207,10.1,12.0,50,0.00,CLR,,0.00,0.0,WeatherDisplay:10.37,2013-04-04 10:31:00,
2013-04-04 05:36:00,36.3,19.4,30.16,SW,219,1.8,6.0,50,0.00,CLR,,0.00,0.0,WeatherDisplay:10.37,2013-04-04 10:36:00,
2013-04-04 05:41:00,36.2,19.3,30.16,SW,214,4.8,6.0,50,0.00,CLR,,0.00,0.0,WeatherDisplay:10.37,2013-04-04 10:41:00,
2013-04-04 05:46:00,36.0,19.1,30.16,SW,214,4.2,4.8,50,0.00,CLR,,0.00,0.0,WeatherDisplay:10.37,2013-04-04 10:46:00,
2013-04-04 05:51:00,36.2,19.3,30.16,SSW,201,5.5,9.2,50,0.00,CLR,,0.00,0.0,WeatherDisplay:10.37,2013-04-04 10:51:00,
2013-04-04 05:56:00,36.3,19.4,30.16,SSW,208,2.3,6.9,50,0.00,CLR,,0.00,0.0,WeatherDisplay:10.37,2013-04-04 10:56:00,
2013-04-04 06:01:00,36.3,19.4,30.15,SSW,207,7.2,8.4,50,0.00,CLR,,0.00,0.0,WeatherDisplay:10.37,2013-04-04 11:01:00,
2013-04-04 06:07:00,36.2,19.3,30.15,SSW,196,6.0,8.0,50,0.00,CLR,,0.00,0.0,WeatherDisplay:10.37,2013-04-04 11:07:00,
2013-04-04 06:12:00,36.0,19.6,30.15,SSW,206,4.1,6.0,51,0.00,CLR,,0.00,0.0,WeatherDisplay:10.37,2013-04-04 11:12:00,
2013-04-04 06:17:00,35.8,19.9,30.14,SSW,200,1.1,4.6,52,0.00,CLR,,0.00,0.0,WeatherDisplay:10.37,2013-04-04 11:17:00,
2013-04-04 06:22:00,35.6,20.1,30.14,SSW,199,0.0,2.0,53,0.00,CLR,,0.00,0.0,WeatherDisplay:10.37,2013-04-04 11:22:00,
2013-04-04 06:27:00,35.6,19.7,30.14,SSW,192,1.9,6.0,52,0.00,CLR,,0.00,0.0,WeatherDisplay:10.37,2013-04-04 11:27:00,
2013-04-04 06:32:00,35.6,19.7,30.14,SSW,195,0.0,0.0,52,0.00,CLR,,0.00,0.0,WeatherDisplay:10.37,2013-04-04 11:32:00,
2013-04-04 06:37:00,35.6,19.7,30.14,SSW,195,0.0,0.0,52,0.00,CLR,,0.00,5.0,WeatherDisplay:10.37,2013-04-04 11:37:00,
2013-04-04 06:42:00,35.9,19.5,30.14,SSW,200,1.5,6.0,51,0.00,CLR,,0.00,9.0,WeatherDisplay:10.37,2013-04-04 11:42:00,
2013-04-04 06:47:00,36.0,19.6,30.13,SSW,194,1.2,4.6,51,0.00,CLR,,0.00,11.0,WeatherDisplay:10.37,2013-04-04 11:47:00,
2013-04-04 06:52:00,36.2,19.8,30.13,SSW,196,4.1,6.0,51,0.00,CLR,,0.00,18.0,WeatherDisplay:10.37,2013-04-04 11:52:00,
2013-04-04 06:57:00,36.2,19.8,30.13,SSW,201,4.3,8.4,51,0.00,CLR,,0.00,23.0,WeatherDisplay:10.37,2013-04-04 11:57:00,
2013-04-04 07:02:00,36.3,19.9,30.13,SSW,194,0.0,0.0,51,0.00,CLR,,0.00,30.0,WeatherDisplay:10.37,2013-04-04 12:02:00,
2013-04-04 07:07:00,36.6,20.2,30.13,SW,221,0.0,0.0,51,0.00,CLR,,0.00,42.0,WeatherDisplay:10.37,2013-04-04 12:07:00,
2013-04-04 07:12:00,36.9,20.0,30.13,SSW,209,6.9,7.2,50,0.00,CLR,,0.00,58.0,WeatherDisplay:10.37,2013-04-04 12:12:00,
2013-04-04 07:17:00,37.0,19.6,30.13,SSW,209,6.1,6.1,49,0.00,CLR,,0.00,86.0,WeatherDisplay:10.37,2013-04-04 12:17:00,
2013-04-04 07:22:00,37.2,20.2,30.13,SW,219,6.3,7.2,50,0.00,CLR,,0.00,113.0,WeatherDisplay:10.37,2013-04-04 12:22:00,
2013-04-04 07:28:00,37.3,20.3,30.13,SSW,205,5.7,7.2,50,0.00,CLR,,0.00,127.0,WeatherDisplay:10.37,2013-04-04 12:28:00,
2013-04-04 07:33:00,37.2,20.7,30.11,SW,215,7.7,10.8,51,0.00,CLR,,0.00,146.0,WeatherDisplay:10.37,2013-04-04 12:33:00,
2013-04-04 07:38:00,37.3,20.3,30.11,SSW,205,9.2,10.8,50,0.00,CLR,,0.00,162.0,WeatherDisplay:10.37,2013-04-04 12:38:00,
2013-04-04 07:43:00,37.9,20.4,30.11,SSW,195,9.2,12.0,49,0.00,CLR,,0.00,176.0,WeatherDisplay:10.37,2013-04-04 12:43:00,
2013-04-04 07:48:00,38.2,20.7,30.11,SSW,200,11.0,11.0,49,0.00,CLR,,0.00,195.0,WeatherDisplay:10.37,2013-04-04 12:48:00,
2013-04-04 07:53:00,38.5,21.0,30.11,SSW,211,8.4,12.7,49,0.00,CLR,,0.00,214.0,WeatherDisplay:10.37,2013-04-04 12:53:00,
2013-04-04 07:58:00,38.8,20.8,30.11,SSW,204,5.0,9.2,48,0.00,CLR,,0.00,232.0,WeatherDisplay:10.37,2013-04-04 12:58:00,
2013-04-04 08:03:00,39.2,20.6,30.11,SSW,209,7.6,9.6,47,0.00,CLR,,0.00,262.0,WeatherDisplay:10.37,2013-04-04 13:03:00,
2013-04-04 08:08:00,39.6,21.0,30.11,SSW,207,7.6,12.0,47,0.00,CLR,,0.00,295.0,WeatherDisplay:10.37,2013-04-04 13:08:00,
2013-04-04 08:13:00,40.2,20.5,30.11,SSW,200,12.4,15.6,45,0.00,CLR,,0.00,338.0,WeatherDisplay:10.37,2013-04-04 13:13:00,
2013-04-04 08:18:00,40.5,20.8,30.11,West,259,10.1,12.0,45,0.00,CLR,,0.00,343.0,WeatherDisplay:10.37,2013-04-04 13:18:00,
2013-04-04 08:23:00,40.8,20.5,30.11,SW,236,6.1,9.2,44,0.00,CLR,,0.00,341.0,WeatherDisplay:10.37,2013-04-04 13:23:00,
2013-04-04 08:28:00,41.1,20.8,30.11,SSW,199,7.8,9.6,44,0.00,CLR,,0.00,352.0,WeatherDisplay:10.37,2013-04-04 13:28:00,
2013-04-04 08:33:00,41.1,20.8,30.11,SSW,210,15.0,18.4,44,0.00,CLR,,0.00,248.0,WeatherDisplay:10.37,2013-04-04 13:33:00,
2013-04-04 08:38:00,41.1,20.8,30.11,SW,228,9.0,15.0,44,0.00,CLR,,0.00,334.0,WeatherDisplay:10.37,2013-04-04 13:38:00,
2013-04-04 08:43:00,41.2,20.9,30.11,SW,218,7.9,9.2,44,0.00,CLR,,0.00,374.0,WeatherDisplay:10.37,2013-04-04 13:43:00,
2013-04-04 08:48:00,41.5,21.2,30.10,SW,228,9.7,12.0,44,0.00,CLR,,0.00,336.0,WeatherDisplay:10.37,2013-04-04 13:48:00,
2013-04-04 08:53:00,41.6,21.3,30.10,WSW,238,10.9,14.4,44,0.00,CLR,,0.00,429.0,WeatherDisplay:10.37,2013-04-04 13:53:00,
2013-04-04 08:58:00,41.8,21.5,30.10,SSW,198,12.4,14.4,44,0.00,CLR,,0.00,448.0,WeatherDisplay:10.37,2013-04-04 13:58:00,
2013-04-04 09:03:00,41.9,21.5,30.10,SW,231,7.4,10.4,44,0.00,CLR,,0.00,392.0,WeatherDisplay:10.37,2013-04-04 14:03:00,
2013-04-04 09:09:00,42.1,22.3,30.10,South,189,10.0,10.8,45,0.00,CLR,,0.00,297.0,WeatherDisplay:10.37,2013-04-04 14:09:00,
2013-04-04 09:14:00,41.9,22.1,30.09,SW,217,9.6,9.6,45,0.00,CLR,,0.00,411.0,WeatherDisplay:10.37,2013-04-04 14:14:00,
2013-04-04 09:19:00,41.8,22.0,30.09,SW,219,10.1,10.8,45,0.00,CLR,,0.00,339.0,WeatherDisplay:10.37,2013-04-04 14:19:00,
2013-04-04 09:24:00,41.8,22.0,30.09,SSW,213,12.1,15.0,45,0.00,CLR,,0.00,285.0,WeatherDisplay:10.37,2013-04-04 14:24:00,
2013-04-04 09:29:00,41.9,22.6,30.08,SSW,192,10.7,17.3,46,0.00,CLR,,0.00,329.0,WeatherDisplay:10.37,2013-04-04 14:29:00,
2013-04-04 09:34:00,41.9,22.6,30.08,SW,221,11.6,12.0,46,0.00,CLR,,0.00,334.0,WeatherDisplay:10.37,2013-04-04 14:34:00,
2013-04-04 09:39:00,42.1,22.8,30.08,SW,235,10.2,15.0,46,0.00,CLR,,0.00,431.0,WeatherDisplay:10.37,2013-04-04 14:39:00,
2013-04-04 09:44:00,42.3,23.5,30.08,SSW,211,11.3,13.2,47,0.00,CLR,,0.00,431.0,WeatherDisplay:10.37,2013-04-04 14:44:00,
2013-04-04 09:49:00,42.8,23.9,30.08,SW,226,10.0,16.8,47,0.00,CLR,,0.00,557.0,WeatherDisplay:10.37,2013-04-04 14:49:00,
2013-04-04 09:54:00,42.9,23.5,30.08,WSW,242,12.9,16.1,46,0.00,CLR,,0.00,568.0,WeatherDisplay:10.37,2013-04-04 14:54:00,
2013-04-04 09:59:00,43.1,23.2,30.08,SW,221,10.8,12.0,45,0.00,CLR,,0.00,584.0,WeatherDisplay:10.37,2013-04-04 14:59:00,
2013-04-04 10:04:00,43.3,23.9,30.08,South,171,10.5,12.0,46,0.00,CLR,,0.00,594.0,WeatherDisplay:10.37,2013-04-04 15:04:00,
2013-04-04 10:09:00,43.8,24.3,30.08,WSW,254,14.2,15.6,46,0.00,CLR,,0.00,608.0,WeatherDisplay:10.37,2013-04-04 15:09:00,
2013-04-04 10:14:00,44.3,24.8,30.08,SSW,203,10.6,15.6,46,0.00,CLR,,0.00,624.0,WeatherDisplay:10.37,2013-04-04 15:14:00,
2013-04-04 10:19:00,44.6,25.1,30.08,SW,217,9.0,12.0,46,0.00,CLR,,0.00,643.0,WeatherDisplay:10.37,2013-04-04 15:19:00,
2013-04-04 10:24:00,44.9,24.8,30.08,WSW,251,14.1,15.6,45,0.00,CLR,,0.00,684.0,WeatherDisplay:10.37,2013-04-04 15:24:00,
2013-04-04 10:30:00,45.2,25.6,30.07,SW,231,11.3,17.3,46,0.00,CLR,,0.00,791.0,WeatherDisplay:10.37,2013-04-04 15:30:00,
2013-04-04 10:35:00,45.4,24.7,30.07,SW,225,15.3,20.7,44,0.00,CLR,,0.00,508.0,WeatherDisplay:10.37,2013-04-04 15:35:00,
2013-04-04 10:40:00,45.5,25.9,30.07,SSW,209,10.6,13.2,46,0.00,CLR,,0.00,362.0,WeatherDisplay:10.37,2013-04-04 15:40:00,
2013-04-04 10:45:00,45.5,25.9,30.07,SSW,210,12.6,14.4,46,0.00,CLR,,0.00,258.0,WeatherDisplay:10.37,2013-04-04 15:45:00,
2013-04-04 10:50:00,45.5,25.9,30.06,SW,228,12.6,17.3,46,0.00,CLR,,0.00,362.0,WeatherDisplay:10.37,2013-04-04 15:50:00,
2013-04-04 10:55:00,46.1,25.9,30.06,SW,226,12.8,16.1,45,0.00,CLR,,0.00,394.0,WeatherDisplay:10.37,2013-04-04 15:55:00,
2013-04-04 11:00:00,46.7,27.0,30.06,SW,215,6.3,14.4,46,0.00,CLR,,0.00,858.0,WeatherDisplay:10.37,2013-04-04 16:00:00,
2013-04-04 11:05:00,47.7,27.9,30.06,WSW,248,7.6,9.6,46,0.00,CLR,,0.00,840.0,WeatherDisplay:10.37,2013-04-04 16:05:00,
2013-04-04 11:10:00,48.3,26.8,30.06,SW,228,17.8,21.6,43,0.00,CLR,,0.00,819.0,WeatherDisplay:10.37,2013-04-04 16:10:00,
2013-04-04 11:15:00,48.5,27.0,30.06,SW,234,11.5,15.0,43,0.00,CLR,,0.00,803.0,WeatherDisplay:10.37,2013-04-04 16:15:00,
2013-04-04 11:20:00,48.8,27.8,30.06,West,274,9.3,13.2,44,0.00,CLR,,0.00,823.0,WeatherDisplay:10.37,2013-04-04 16:20:00,
2013-04-04 11:25:00,48.8,27.3,30.06,WSW,246,11.1,13.2,43,0.00,CLR,,0.00,770.0,WeatherDisplay:10.37,2013-04-04 16:25:00,
2013-04-04 11:30:00,49.1,28.1,30.05,West,279,9.1,10.4,44,0.00,CLR,,0.00,803.0,WeatherDisplay:10.37,2013-04-04 16:30:00,
2013-04-04 11:35:00,49.2,28.7,30.05,WSW,257,7.3,15.0,45,0.00,CLR,,0.00,884.0,WeatherDisplay:10.37,2013-04-04 16:35:00,
2013-04-04 11:40:00,49.5,28.5,30.05,West,263,8.9,15.0,44,0.00,CLR,,0.00,972.0,WeatherDisplay:10.37,2013-04-04 16:40:00,
2013-04-04 11:45:00,49.8,28.7,30.05,West,273,8.1,10.8,44,0.00,CLR,,0.00,649.0,WeatherDisplay:10.37,2013-04-04 16:45:00,
2013-04-04 11:50:00,49.9,28.8,30.05,West,263,7.4,11.5,44,0.00,CLR,,0.00,650.0,WeatherDisplay:10.37,2013-04-04 16:50:00,
2013-04-04 11:55:00,49.6,29.1,30.05,West,261,9.3,10.8,45,0.00,CLR,,0.00,397.0,WeatherDisplay:10.37,2013-04-04 16:55:00,
2013-04-04 12:00:00,50.1,29.0,30.05,SW,236,8.3,9.6,44,0.00,CLR,,0.00,800.0,WeatherDisplay:10.37,2013-04-04 17:00:00,
2013-04-04 12:06:00,50.5,29.4,30.05,West,281,7.5,10.8,44,0.00,-RA,,0.00,925.0,WeatherDisplay:10.37,2013-04-04 17:06:00,
2013-04-04 12:11:00,50.7,30.7,30.05,WSW,254,4.7,5.8,46,0.00,-RA,,0.00,241.0,WeatherDisplay:10.37,2013-04-04 17:11:00,
2013-04-04 12:16:00,50.2,29.7,30.05,NW,321,7.9,9.6,45,0.00,-RA,,0.00,867.0,WeatherDisplay:10.37,2013-04-04 17:16:00,
2013-04-04 12:21:00,50.4,29.3,30.05,West,273,12.5,14.4,44,0.00,-RA,,0.00,1011.0,WeatherDisplay:10.37,2013-04-04 17:21:00,
2013-04-04 12:26:00,49.9,29.9,30.05,WSW,252,12.7,16.1,46,0.00,-RA,,0.00,536.0,WeatherDisplay:10.37,2013-04-04 17:26:00,
2013-04-04 12:32:00,49.6,29.6,30.04,West,275,10.0,17.3,46,0.00,-RA,,0.00,480.0,WeatherDisplay:10.37,2013-04-04 17:32:00,
2013-04-04 12:37:00,49.8,30.4,30.04,West,280,7.9,13.2,47,0.00,-RA,,0.00,237.0,WeatherDisplay:10.37,2013-04-04 17:37:00,
2013-04-04 12:42:00,49.2,29.8,30.04,WSW,240,9.0,10.8,47,0.00,CLR,,0.00,223.0,WeatherDisplay:10.37,2013-04-04 17:42:00,
2013-04-04 12:47:00,48.9,30.6,30.04,SW,234,6.5,8.4,49,0.00,CLR,,0.00,285.0,WeatherDisplay:10.37,2013-04-04 17:47:00,
2013-04-04 12:52:00,48.9,31.1,30.04,WSW,254,7.0,13.0,50,0.00,CLR,,0.00,294.0,WeatherDisplay:10.37,2013-04-04 17:52:00,
2013-04-04 12:57:00,48.9,30.6,30.04,West,279,8.1,9.6,49,0.00,CLR,,0.00,367.0,WeatherDisplay:10.37,2013-04-04 17:57:00,
2013-04-04 13:02:00,49.1,30.7,30.03,WSW,254,9.1,9.6,49,0.00,SCT,,0.00,392.0,WeatherDisplay:10.37,2013-04-04 18:02:00,
2013-04-04 13:07:00,49.2,30.8,30.03,WSW,240,6.3,9.6,49,0.00,SCT,,0.00,355.0,WeatherDisplay:10.37,2013-04-04 18:07:00,
2013-04-04 13:12:00,49.4,31.0,30.03,West,277,7.2,9.6,49,0.00,SCT,,0.00,308.0,WeatherDisplay:10.37,2013-04-04 18:12:00,
2013-04-04 13:17:00,49.4,30.5,30.04,WNW,294,10.9,12.0,48,0.00,SCT,,0.00,248.0,WeatherDisplay:10.37,2013-04-04 18:17:00,
2013-04-04 13:22:00,49.6,31.2,30.04,West,263,1.4,4.6,49,0.00,SCT,,0.00,239.0,WeatherDisplay:10.37,2013-04-04 18:22:00,
2013-04-04 13:27:00,49.6,31.2,30.04,WNW,287,1.4,4.6,49,0.00,SCT,,0.00,250.0,WeatherDisplay:10.37,2013-04-04 18:27:00,
2013-04-04 13:32:00,49.5,30.6,30.03,West,261,3.3,8.1,48,0.00,SCT,,0.00,274.0,WeatherDisplay:10.37,2013-04-04 18:32:00,
2013-04-04 13:37:00,49.5,31.1,30.03,SW,236,6.0,10.8,49,0.00,SCT,,0.00,420.0,WeatherDisplay:10.37,2013-04-04 18:37:00,
2013-04-04 13:42:00,49.6,31.7,30.03,West,279,7.5,10.8,50,0.00,SCT,,0.00,272.0,WeatherDisplay:10.37,2013-04-04 18:42:00,
2013-04-04 13:47:00,49.4,31.5,30.03,West,265,4.5,8.4,50,0.00,SCT,,0.00,311.0,WeatherDisplay:10.37,2013-04-04 18:47:00,
2013-04-04 13:52:00,49.5,31.6,30.03,NW,304,7.0,8.4,50,0.00,SCT,,0.00,446.0,WeatherDisplay:10.37,2013-04-04 18:52:00,
2013-04-04 13:57:00,49.4,32.0,30.03,WNW,288,7.8,8.4,51,0.00,SCT,,0.00,696.0,WeatherDisplay:10.37,2013-04-04 18:57:00,
2013-04-04 14:02:00,49.2,32.3,30.03,WNW,291,9.9,13.2,52,0.00,SCT,,0.00,668.0,WeatherDisplay:10.37,2013-04-04 19:02:00,
2013-04-04 14:07:00,49.2,32.3,30.03,WNW,291,7.9,9.6,52,0.00,SCT,,0.00,504.0,WeatherDisplay:10.37,2013-04-04 19:07:00,
2013-04-04 14:12:00,49.4,33.0,30.03,WSW,245,11.3,13.2,53,0.00,SCT,,0.00,552.0,WeatherDisplay:10.37,2013-04-04 19:12:00,
2013-04-04 14:17:00,49.2,32.8,30.02,West,264,8.9,9.6,53,0.00,SCT,,0.00,455.0,WeatherDisplay:10.37,2013-04-04 19:17:00,
2013-04-04 14:22:00,49.4,33.9,30.02,SW,235,11.2,15.6,55,0.00,CLR,,0.00,504.0,WeatherDisplay:10.37,2013-04-04 19:22:00,
2013-04-04 14:27:00,50.1,34.5,30.02,NW,315,4.4,8.1,55,0.00,CLR,,0.00,865.0,WeatherDisplay:10.37,2013-04-04 19:27:00,
2013-04-04 14:32:00,50.8,34.3,30.02,West,277,8.7,10.4,53,0.00,CLR,,0.00,545.0,WeatherDisplay:10.37,2013-04-04 19:32:00,
2013-04-04 14:37:00,50.5,34.0,30.02,WSW,248,10.0,15.6,53,0.00,CLR,,0.00,768.0,WeatherDisplay:10.37,2013-04-04 19:37:00,
2013-04-04 14:42:00,50.5,34.0,30.02,WSW,248,5.9,9.6,53,0.00,CLR,,0.00,729.0,WeatherDisplay:10.37,2013-04-04 19:42:00,
2013-04-04 14:47:00,50.5,34.0,30.01,West,261,7.6,15.0,53,0.00,CLR,,0.00,710.0,WeatherDisplay:10.37,2013-04-04 19:47:00,
2013-04-04 14:52:00,50.7,34.2,30.01,WSW,250,7.3,8.4,53,0.00,CLR,,0.00,738.0,WeatherDisplay:10.37,2013-04-04 19:52:00,
2013-04-04 14:57:00,50.8,34.3,30.01,West,265,6.6,10.8,53,0.00,CLR,,0.00,696.0,WeatherDisplay:10.37,2013-04-04 19:57:00,
2013-04-04 15:02:00,51.1,34.5,30.02,West,264,5.4,8.1,53,0.00,CLR,,0.00,694.0,WeatherDisplay:10.37,2013-04-04 20:02:00,
2013-04-04 15:07:00,51.9,35.3,30.02,WNW,284,6.8,10.8,53,0.00,CLR,,0.00,700.0,WeatherDisplay:10.37,2013-04-04 20:07:00,
2013-04-04 15:12:00,51.0,34.9,30.02,WSW,256,9.5,14.4,54,0.00,CLR,,0.00,682.0,WeatherDisplay:10.37,2013-04-04 20:12:00,
2013-04-04 15:17:00,51.6,35.9,30.01,WSW,244,3.1,6.0,55,0.00,CLR,,0.00,680.0,WeatherDisplay:10.37,2013-04-04 20:17:00,
2013-04-04 15:22:00,51.7,35.1,30.01,West,279,6.7,8.4,53,0.00,CLR,,0.00,657.0,WeatherDisplay:10.37,2013-04-04 20:22:00,
2013-04-04 15:27:00,51.7,35.1,30.01,West,277,7.6,12.0,53,0.00,CLR,,0.00,663.0,WeatherDisplay:10.37,2013-04-04 20:27:00,
2013-04-04 15:32:00,51.6,35.0,30.01,WNW,294,7.9,9.6,53,0.00,CLR,,0.00,643.0,WeatherDisplay:10.37,2013-04-04 20:32:00,
2013-04-04 15:37:00,51.6,35.0,30.01,NNW,338,7.3,9.6,53,0.00,CLR,,0.00,636.0,WeatherDisplay:10.37,2013-04-04 20:37:00,
2013-04-04 15:42:00,51.0,34.5,30.01,NW,314,4.6,6.0,53,0.00,CLR,,0.00,615.0,WeatherDisplay:10.37,2013-04-04 20:42:00,
2013-04-04 15:47:00,51.0,34.5,30.01,NW,322,7.0,8.4,53,0.00,CLR,,0.00,605.0,WeatherDisplay:10.37,2013-04-04 20:47:00,
2013-04-04 15:52:00,51.0,34.5,30.01,WNW,282,8.4,10.8,53,0.00,CLR,,0.00,592.0,WeatherDisplay:10.37,2013-04-04 20:52:00,
2013-04-04 15:57:00,50.7,34.6,30.01,WNW,293,9.4,12.0,54,0.00,CLR,,0.00,577.0,WeatherDisplay:10.37,2013-04-04 20:57:00,
2013-04-04 16:02:00,50.7,34.6,30.02,NW,313,5.7,7.2,54,0.00,CLR,,0.00,559.0,WeatherDisplay:10.37,2013-04-04 21:02:00,
2013-04-04 16:07:00,50.8,34.7,30.02,WNW,294,10.9,13.2,54,0.00,CLR,,0.00,520.0,WeatherDisplay:10.37,2013-04-04 21:07:00,
2013-04-04 16:12:00,51.1,34.5,30.02,NW,315,5.1,7.2,53,0.00,CLR,,0.00,527.0,WeatherDisplay:10.37,2013-04-04 21:12:00,
2013-04-04 16:17:00,51.4,34.3,30.02,NNW,330,6.2,9.2,52,0.00,CLR,,0.00,503.0,WeatherDisplay:10.37,2013-04-04 21:17:00,
2013-04-04 16:22:00,50.8,33.8,30.02,NW,321,7.7,13.2,52,0.00,CLR,,0.00,483.0,WeatherDisplay:10.37,2013-04-04 21:22:00,
2013-04-04 16:28:00,50.8,33.3,30.02,WNW,292,6.5,8.4,51,0.00,CLR,,0.00,489.0,WeatherDisplay:10.37,2013-04-04 21:28:00,
2013-04-04 16:33:00,50.8,33.3,30.02,WNW,288,7.6,10.8,51,0.00,CLR,,0.00,457.0,WeatherDisplay:10.37,2013-04-04 21:33:00,
2013-04-04 16:38:00,50.7,34.6,30.02,NW,317,5.1,6.0,54,0.00,CLR,,0.00,454.0,WeatherDisplay:10.37,2013-04-04 21:38:00,
2013-04-04 16:43:00,50.7,33.7,30.02,NW,319,7.2,9.6,52,0.00,CLR,,0.00,450.0,WeatherDisplay:10.37,2013-04-04 21:43:00,
2013-04-04 16:48:00,50.7,33.2,30.02,NW,319,6.5,10.4,51,0.00,CLR,,0.00,443.0,WeatherDisplay:10.37,2013-04-04 21:48:00,
2013-04-04 16:53:00,50.7,32.7,30.02,NNW,337,7.7,10.8,50,0.00,CLR,,0.00,410.0,WeatherDisplay:10.37,2013-04-04 21:53:00,
2013-04-04 16:58:00,50.5,34.0,30.02,West,278,2.4,6.0,53,0.00,CLR,,0.00,408.0,WeatherDisplay:10.37,2013-04-04 21:58:00,
2013-04-04 17:03:00,50.5,33.5,30.02,WNW,286,4.9,8.4,52,0.00,CLR,,0.00,380.0,WeatherDisplay:10.37,2013-04-04 22:03:00,
2013-04-04 17:08:00,50.4,33.4,30.02,WNW,292,9.5,15.0,52,0.00,CLR,,0.00,346.0,WeatherDisplay:10.37,2013-04-04 22:08:00,
2013-04-04 17:13:00,50.7,33.7,30.02,West,269,10.0,12.0,52,0.00,CLR,,0.00,341.0,WeatherDisplay:10.37,2013-04-04 22:13:00,
2013-04-04 17:18:00,50.8,33.8,30.02,West,281,7.2,13.2,52,0.00,CLR,,0.00,336.0,WeatherDisplay:10.37,2013-04-04 22:18:00,
2013-04-04 17:23:00,51.0,34.5,30.02,NW,322,3.0,5.8,53,0.00,CLR,,0.00,325.0,WeatherDisplay:10.37,2013-04-04 22:23:00,
2013-04-04 17:28:00,50.8,32.3,30.02,North,351,8.8,18.4,49,0.00,CLR,,0.00,306.0,WeatherDisplay:10.37,2013-04-04 22:28:00,
2013-04-04 17:33:00,50.4,32.4,30.03,West,278,8.5,15.6,50,0.00,CLR,,0.00,287.0,WeatherDisplay:10.37,2013-04-04 22:33:00,
2013-04-04 17:38:00,50.4,31.9,30.03,NW,306,6.2,14.4,49,0.00,CLR,,0.00,241.0,WeatherDisplay:10.37,2013-04-04 22:38:00,
2013-04-04 17:43:00,50.2,31.2,30.03,NW,321,6.8,9.6,48,0.00,CLR,,0.00,193.0,WeatherDisplay:10.37,2013-04-04 22:43:00,
2013-04-04 17:48:00,49.9,29.9,30.03,WNW,302,9.3,13.2,46,0.00,CLR,,0.00,176.0,WeatherDisplay:10.37,2013-04-04 22:48:00,
2013-04-04 17:53:00,49.8,30.4,30.03,NW,304,6.8,10.4,47,0.00,CLR,,0.00,146.0,WeatherDisplay:10.37,2013-04-04 22:53:00,
2013-04-04 17:58:00,49.5,31.6,30.03,NW,309,3.7,8.1,50,0.00,CLR,,0.00,132.0,WeatherDisplay:10.37,2013-04-04 22:58:00,
2013-04-04 18:03:00,49.5,31.6,30.04,NW,307,4.4,8.1,50,0.00,CLR,,0.00,137.0,WeatherDisplay:10.37,2013-04-04 23:03:00,
2013-04-04 18:08:00,49.5,31.6,30.04,NW,308,6.2,10.8,50,0.00,CLR,,0.00,118.0,WeatherDisplay:10.37,2013-04-04 23:08:00,
2013-04-04 18:13:00,49.4,31.5,30.04,WNW,288,7.0,8.4,50,0.00,CLR,,0.00,111.0,WeatherDisplay:10.37,2013-04-04 23:13:00,
2013-04-04 18:18:00,49.1,31.2,30.04,WNW,284,5.8,10.8,50,0.00,CLR,,0.00,104.0,WeatherDisplay:10.37,2013-04-04 23:18:00,
2013-04-04 18:23:00,49.1,31.2,30.04,West,271,3.7,6.0,50,0.00,CLR,,0.00,84.0,WeatherDisplay:10.37,2013-04-04 23:23:00,
2013-04-04 18:28:00,48.8,31.5,30.04,WNW,287,5.8,10.8,51,0.00,CLR,,0.00,84.0,WeatherDisplay:10.37,2013-04-04 23:28:00,
2013-04-04 18:33:00,48.8,31.5,30.04,WNW,288,9.2,12.0,51,0.00,CLR,,0.00,70.0,WeatherDisplay:10.37,2013-04-04 23:33:00,
2013-04-04 18:38:00,48.6,31.8,30.04,West,270,3.1,4.8,52,0.00,CLR,,0.00,79.0,WeatherDisplay:10.37,2013-04-04 23:38:00,
2013-04-04 18:43:00,48.5,31.7,30.04,NNW,336,1.8,7.2,52,0.00,CLR,,0.00,65.0,WeatherDisplay:10.37,2013-04-04 23:43:00,
2013-04-04 18:48:00,48.3,31.9,30.04,WNW,291,6.5,8.4,53,0.00,CLR,,0.00,63.0,WeatherDisplay:10.37,2013-04-04 23:48:00,
2013-04-04 18:53:00,48.0,32.1,30.04,NW,319,1.7,5.8,54,0.00,CLR,,0.00,47.0,WeatherDisplay:10.37,2013-04-04 23:53:00,
2013-04-04 18:58:00,47.7,31.9,30.04,NW,320,4.4,10.8,54,0.00,CLR,,0.00,35.0,WeatherDisplay:10.37,2013-04-04 23:58:00,
2013-04-04 19:03:00,47.6,32.2,30.04,WNW,284,3.3,6.9,55,0.00,CLR,,0.00,30.0,WeatherDisplay:10.37,2013-04-05 00:03:00,
2013-04-04 19:08:00,47.1,32.2,30.04,WNW,285,3.0,6.0,56,0.00,CLR,,0.00,26.0,WeatherDisplay:10.37,2013-04-05 00:08:00,
2013-04-04 19:13:00,46.8,31.9,30.04,NW,311,2.2,6.0,56,0.00,CLR,,0.00,19.0,WeatherDisplay:10.37,2013-04-05 00:13:00,
2013-04-04 19:18:00,46.7,32.3,30.04,WSW,254,1.2,3.6,57,0.00,CLR,,0.00,14.0,WeatherDisplay:10.37,2013-04-05 00:18:00,
2013-04-04 19:23:00,46.4,32.0,30.04,NW,304,0.3,3.5,57,0.00,CLR,,0.00,11.0,WeatherDisplay:10.37,2013-04-05 00:23:00,
2013-04-04 19:28:00,46.1,32.1,30.04,West,274,1.9,6.0,58,0.00,CLR,,0.00,7.0,WeatherDisplay:10.37,2013-04-05 00:28:00,
2013-04-04 19:33:00,45.7,31.8,30.04,NW,305,1.3,2.4,58,0.00,CLR,,0.00,0.0,WeatherDisplay:10.37,2013-04-05 00:33:00,
2013-04-04 19:38:00,45.4,31.9,30.04,WNW,298,1.0,4.8,59,0.00,CLR,,0.00,0.0,WeatherDisplay:10.37,2013-04-05 00:38:00,
2013-04-04 19:43:00,45.1,31.6,30.04,WNW,302,0.0,0.0,59,0.00,CLR,,0.00,0.0,WeatherDisplay:10.37,2013-04-05 00:43:00,
2013-04-04 19:48:00,44.8,31.8,30.04,NW,308,0.5,3.6,60,0.00,CLR,,0.00,0.0,WeatherDisplay:10.37,2013-04-05 00:48:00,
2013-04-04 19:53:00,44.6,31.6,30.04,NW,305,0.0,1.2,60,0.00,CLR,,0.00,0.0,WeatherDisplay:10.37,2013-04-05 00:53:00,
2013-04-04 19:58:00,44.3,31.7,30.04,NW,311,1.2,4.6,61,0.00,CLR,,0.00,0.0,WeatherDisplay:10.37,2013-04-05 00:58:00,
2013-04-04 20:03:00,44.1,31.5,30.04,NW,310,0.0,1.2,61,0.00,CLR,,0.00,0.0,WeatherDisplay:10.37,2013-04-05 01:03:00,
2013-04-04 20:08:00,43.8,30.8,30.04,WNW,296,2.0,3.6,60,0.00,CLR,,0.00,0.0,WeatherDisplay:10.37,2013-04-05 01:08:00,
2013-04-04 20:13:00,43.8,30.8,30.04,WNW,296,1.2,3.5,60,0.00,CLR,,0.00,0.0,WeatherDisplay:10.37,2013-04-05 01:13:00,
2013-04-04 20:18:00,43.5,30.5,30.05,WNW,296,0.0,0.0,60,0.00,CLR,,0.00,0.0,WeatherDisplay:10.37,2013-04-05 01:18:00,
2013-04-04 20:23:00,43.3,30.7,30.05,WNW,296,0.0,0.0,61,0.00,CLR,,0.00,0.0,WeatherDisplay:10.37,2013-04-05 01:23:00,
2013-04-04 20:28:00,43.2,30.6,30.05,West,272,0.0,1.2,61,0.00,CLR,,0.00,0.0,WeatherDisplay:10.37,2013-04-05 01:28:00,
2013-04-04 20:33:00,43.1,30.6,30.05,West,272,0.0,0.0,61,0.00,CLR,,0.00,0.0,WeatherDisplay:10.37,2013-04-05 01:33:00,
2013-04-04 20:38:00,42.9,30.4,30.05,West,272,0.0,0.0,61,0.00,CLR,,0.00,0.0,WeatherDisplay:10.37,2013-04-05 01:38:00,
2013-04-04 20:43:00,42.6,30.1,30.05,West,279,0.0,0.0,61,0.00,CLR,,0.00,0.0,WeatherDisplay:10.37,2013-04-05 01:43:00,
2013-04-04 20:48:00,42.3,29.8,30.06,West,279,0.0,1.2,61,0.00,CLR,,0.00,0.0,WeatherDisplay:10.37,2013-04-05 01:48:00,
2013-04-04 20:53:00,42.2,29.7,30.06,West,279,0.0,0.0,61,0.00,CLR,,0.00,0.0,WeatherDisplay:10.37,2013-04-05 01:53:00,
2013-04-04 20:58:00,42.1,29.6,30.06,West,279,0.0,1.2,61,0.00,CLR,,0.00,0.0,WeatherDisplay:10.37,2013-04-05 01:58:00,
2013-04-04 21:03:00,41.9,29.4,30.07,West,279,0.2,1.2,61,0.00,CLR,,0.00,0.0,WeatherDisplay:10.37,2013-04-05 02:03:00,
2013-04-04 21:08:00,41.6,29.1,30.07,West,279,0.0,0.0,61,0.00,CLR,,0.00,0.0,WeatherDisplay:10.37,2013-04-05 02:08:00,
2013-04-04 21:13:00,41.5,29.0,30.07,West,279,0.0,0.0,61,0.00,CLR,,0.00,0.0,WeatherDisplay:10.37,2013-04-05 02:13:00,
2013-04-04 21:18:00,41.3,29.3,30.08,West,279,0.1,1.2,62,0.00,CLR,,0.00,0.0,WeatherDisplay:10.37,2013-04-05 02:18:00,
2013-04-04 21:23:00,41.2,29.2,30.08,West,279,0.2,2.4,62,0.00,CLR,,0.00,0.0,WeatherDisplay:10.37,2013-04-05 02:23:00,
2013-04-04 21:28:00,41.1,29.1,30.08,West,279,0.7,2.4,62,0.00,CLR,,0.00,0.0,WeatherDisplay:10.37,2013-04-05 02:28:00,
2013-04-04 21:33:00,40.9,28.9,30.08,West,279,0.0,1.2,62,0.00,CLR,,0.00,0.0,WeatherDisplay:10.37,2013-04-05 02:33:00,
2013-04-04 21:38:00,40.8,29.2,30.08,West,279,0.0,0.0,63,0.00,CLR,,0.00,0.0,WeatherDisplay:10.37,2013-04-05 02:38:00,
2013-04-04 21:43:00,40.6,29.0,30.08,West,279,0.0,0.0,63,0.00,CLR,,0.00,0.0,WeatherDisplay:10.37,2013-04-05 02:43:00,
2013-04-04 21:48:00,40.3,28.7,30.08,NW,307,1.3,4.8,63,0.00,CLR,,0.00,0.0,WeatherDisplay:10.37,2013-04-05 02:48:00,
2013-04-04 21:53:00,40.3,29.1,30.08,NW,306,0.0,0.0,64,0.00,CLR,,0.00,0.0,WeatherDisplay:10.37,2013-04-05 02:53:00,
2013-04-04 21:58:00,40.3,29.1,30.08,NW,323,0.8,3.6,64,0.00,CLR,,0.00,0.0,WeatherDisplay:10.37,2013-04-05 02:58:00,
2013-04-04 22:03:00,40.3,29.1,30.08,North,349,1.8,6.0,64,0.00,CLR,,0.00,0.0,WeatherDisplay:10.37,2013-04-05 03:03:00,
2013-04-04 22:08:00,40.2,29.4,30.08,NNW,344,1.1,2.4,65,0.00,CLR,,0.00,0.0,WeatherDisplay:10.37,2013-04-05 03:08:00,
2013-04-04 22:13:00,40.1,29.3,30.08,NW,304,0.0,0.0,65,0.00,CLR,,0.00,0.0,WeatherDisplay:10.37,2013-04-05 03:13:00,
2013-04-04 22:18:00,39.8,29.0,30.08,NW,304,0.0,0.0,65,0.00,CLR,,0.00,0.0,WeatherDisplay:10.37,2013-04-05 03:18:00,
2013-04-04 22:23:00,39.6,29.2,30.08,NW,311,0.0,0.0,66,0.00,CLR,,0.00,0.0,WeatherDisplay:10.37,2013-04-05 03:23:00,
2013-04-04 22:28:00,39.6,29.2,30.08,NNW,327,0.3,2.4,66,0.00,CLR,,0.00,0.0,WeatherDisplay:10.37,2013-04-05 03:28:00,
2013-04-04 22:33:00,39.5,29.1,30.09,NW,309,2.0,3.6,66,0.00,CLR,,0.00,0.0,WeatherDisplay:10.37,2013-04-05 03:33:00,
2013-04-04 22:38:00,39.2,29.2,30.09,NW,306,2.5,3.6,67,0.00,CLR,,0.00,0.0,WeatherDisplay:10.37,2013-04-05 03:38:00,
2013-04-04 22:43:00,39.2,29.2,30.09,WNW,298,3.3,4.8,67,0.00,CLR,,0.00,0.0,WeatherDisplay:10.37,2013-04-05 03:43:00,
2013-04-04 22:48:00,39.2,29.2,30.09,WNW,300,0.5,4.6,67,0.00,CLR,,0.00,0.0,WeatherDisplay:10.37,2013-04-05 03:48:00,
2013-04-04 22:53:00,39.1,29.1,30.09,NW,318,0.5,2.4,67,0.00,CLR,,0.00,0.0,WeatherDisplay:10.37,2013-04-05 03:53:00,
2013-04-04 22:58:00,39.1,29.1,30.09,NW,320,3.1,4.8,67,0.00,CLR,,0.00,0.0,WeatherDisplay:10.37,2013-04-05 03:58:00,
2013-04-04 23:00:00,39.1,29.1,30.09,NW,316,3.9,6.0,67,0.00,CLR,,0.00,0.0,WeatherDisplay:10.37,2013-04-05 04:00:00,
2013-04-04 23:01:00,39.1,29.1,30.09,NNW,335,2.4,6.0,67,0.00,CLR,,0.00,0.0,WeatherDisplay:10.37,2013-04-05 04:01:00,
2013-04-04 23:06:00,38.9,28.9,30.09,NNW,329,0.0,0.0,67,0.00,CLR,,0.00,0.0,WeatherDisplay:10.37,2013-04-05 04:06:00,
2013-04-04 23:11:00,38.6,28.6,30.09,NW,309,1.0,3.6,67,0.00,CLR,,0.00,0.0,WeatherDisplay:10.37,2013-04-05 04:11:00,
2013-04-04 23:16:00,38.5,28.9,30.10,NW,325,1.2,5.8,68,0.00,CLR,,0.00,0.0,WeatherDisplay:10.37,2013-04-05 04:16:00,
2013-04-04 23:21:00,38.5,28.5,30.10,NW,311,0.9,2.4,67,0.00,CLR,,0.00,0.0,WeatherDisplay:10.37,2013-04-05 04:21:00,
2013-04-04 23:26:00,38.3,28.3,30.10,WNW,286,1.6,4.6,67,0.00,CLR,,0.00,0.0,WeatherDisplay:10.37,2013-04-05 04:26:00,
2013-04-04 23:31:00,38.3,28.3,30.10,NW,315,1.7,3.6,67,0.00,CLR,,0.00,0.0,WeatherDisplay:10.37,2013-04-05 04:31:00,
2013-04-04 23:36:00,38.2,28.2,30.10,WNW,296,1.0,2.4,67,0.00,CLR,,0.00,0.0,WeatherDisplay:10.37,2013-04-05 04:36:00,
2013-04-04 23:41:00,38.2,28.2,30.10,NW,315,0.7,3.6,67,0.00,CLR,,0.00,0.0,WeatherDisplay:10.37,2013-04-05 04:41:00,
2013-04-04 23:46:00,38.2,28.2,30.10,NW,318,2.3,4.8,67,0.00,CLR,,0.00,0.0,WeatherDisplay:10.37,2013-04-05 04:46:00,
2013-04-04 23:51:00,38.0,28.0,30.10,NW,313,0.2,2.3,67,0.00,CLR,,0.00,0.0,WeatherDisplay:10.37,2013-04-05 04:51:00,
2013-04-04 23:56:00,38.0,28.0,30.10,NW,325,3.9,4.8,67,0.00,CLR,,0.00,0.0,WeatherDisplay:10.37,2013-04-05 04:56:00,